Theta_e
325 324 324 319 307 306 301 304 309 308 306 308 315 313 307 302 301 301 305 308 316 321 323 324 328 328 328 329 329 330 330 331 330 330 330 331 330 330 331 331 332 333 335 336 336 337 336 334 335
319 319 319 314 303 298 301 308 307 308 308 312 312 311 311 299 302 300 301 309 316 318 321 322 325 326 327 327 328 327 327 327 327 327 327 327 326 326 327 327 328 328 329 329 329 332 332 331 332
319 318 313 308 303 298 300 309 309 306 307 310 306 305 304 298 301 301 304 310 314 316 320 321 323 324 325 325 324 324 325 324 324 324 324 323 323 324 324 324 324 325 326 326 326 326 327 327 333
314 315 315 304 301 305 306 310 314 305 306 307 309 299 298 301 302 303 307 310 312 315 317 319 321 322 323 323 322 323 322 322 321 320 320 320 320 320 320 321 322 323 323 323 324 324 324 327 332
314 314 306 303 303 307 310 313 310 305 305 305 306 299 295 300 303 304 306 310 310 313 314 314 318 319 320 320 319 319 318 317 317 316 317 316 317 317 318 318 319 319 320 320 321 322 325 329 328
308 312 301 300 303 309 311 311 308 307 308 305 305 301 296 300 300 302 304 306 310 311 311 309 312 314 315 316 316 315 315 314 313 312 313 313 313 314 314 315 316 317 318 318 320 325 327 326 325
305 305 302 303 303 306 310 311 305 307 307 302 303 300 295 298 301 301 302 304 306 308 307 305 305 307 309 310 310 310 310 308 308 307 306 306 308 308 309 312 314 316 317 319 324 323 323 323 322
310 307 301 304 302 304 305 306 301 302 300 302 301 299 294 298 301 301 301 300 301 302 301 299 300 302 301 300 304 304 304 303 302 302 301 301 303 304 307 308 313 315 316 317 318 320 321 320 318
314 302 299 302 303 306 303 302 299 299 299 300 299 296 299 301 301 299 298 298 298 300 299 299 298 298 298 297 298 300 300 299 300 299 299 300 296 297 301 306 311 313 314 315 315 315 317 314 313
305 302 303 306 306 305 308 304 307 298 299 297 296 297 299 299 298 296 296 296 296 296 297 298 296 296 295 297 295 294 295 294 295 295 295 296 294 294 299 302 306 308 311 312 313 314 315 308 304
305 300 307 306 302 300 299 297 301 297 299 303 298 295 296 297 297 297 297 297 297 297 297 297 297 296 294 294 292 292 292 293 294 294 294 295 295 294 295 297 299 299 305 302 305 305 306 303 303
297 302 306 305 301 301 298 299 296 297 298 298 299 298 296 296 296 297 297 298 297 296 296 297 295 294 293 292 293 293 293 292 292 292 293 293 293 293 295 296 297 299 299 299 300 300 302 303 303
297 299 301 302 299 298 298 298 301 299 301 298 299 297 296 296 296 299 299 298 297 295 295 294 293 292 293 292 292 292 291 291 291 291 291 292 291 292 295 296 297 297 298 297 297 298 299 299 300
297 297 298 299 298 299 295 297 297 299 303 295 297 296 296 296 297 299 298 296 296 296 294 293 293 292 292 291 291 290 291 290 290 289 289 291 291 291 294 295 295 296 295 295 295 295 295 294 293
296 291 294 294 295 294 295 292 294 300 302 297 296 296 297 297 298 298 298 296 296 296 295 292 291 291 291 291 290 290 289 290 288 288 289 289 291 292 294 294 294 294 294 293 293 292 292 290 290
290 290 285 290 293 292 292 288 296 300 294 294 293 294 296 296 297 299 298 296 296 295 293 292 292 290 290 289 289 289 289 289 288 288 288 289 290 293 293 293 292 293 292 291 290 290 289 288 288
289 283 286 288 292 290 290 287 292 294 294 293 295 295 295 295 295 297 296 296 295 294 292 290 289 289 289 289 289 289 289 288 287 287 287 288 290 293 293 292 292 293 292 290 290 289 288 286 287
284 285 287 287 288 288 286 286 290 290 291 291 293 295 295 294 295 296 295 295 295 293 292 290 289 289 289 288 288 288 287 287 286 286 287 288 288 292 292 292 292 293 290 289 289 287 287 286 286
288 286 285 287 287 285 285 285 288 291 288 288 292 294 295 294 296 296 295 295 293 293 291 289 288 288 288 287 286 285 285 285 285 286 287 287 287 291 292 291 292 292 289 288 288 287 286 286 287
287 284 284 287 285 283 283 284 287 289 290 289 290 292 295 295 294 294 294 294 292 291 290 289 289 288 288 288 287 287 285 285 285 286 286 287 287 288 291 291 290 290 289 288 288 289 287 286 287
284 283 282 282 284 282 279 279 282 286 289 291 292 293 294 296 293 293 293 292 292 290 289 289 288 288 288 288 288 287 286 285 283 284 284 286 287 287 288 290 290 290 290 288 288 288 287 284 285
279 283 284 283 279 275 280 272 280 284 286 287 290 291 292 294 295 294 292 291 290 290 290 289 288 288 288 288 286 285 283 282 283 284 284 285 286 286 287 288 289 288 288 287 287 288 285 285 282
280 282 281 280 278 277 276 273 279 281 282 285 288 289 290 292 293 293 292 291 291 290 288 288 288 287 287 287 286 285 284 284 285 284 283 284 284 285 285 286 286 285 285 283 284 284 283 284 282
283 279 279 277 276 269 276 276 276 281 282 285 287 288 289 288 290 293 293 291 290 290 288 288 287 286 287 286 286 285 284 284 283 283 282 282 283 283 284 285 285 284 284 283 283 283 283 282 282
279 277 274 270 267 269 276 275 279 284 287 285 286 287 286 287 288 291 290 289 290 289 288 287 286 285 286 285 285 285 285 284 283 283 282 282 281 282 282 284 283 283 283 283 283 282 282 282 281
277 277 275 268 271 273 274 273 278 284 287 284 283 282 285 284 287 289 290 289 289 289 287 287 286 285 285 285 285 285 285 285 284 284 283 283 282 283 283 284 283 283 283 283 282 281 281 281 281
276 273 278 274 269 268 273 277 282 283 283 284 284 282 283 283 285 288 289 290 289 288 287 287 285 285 285 285 285 285 285 284 284 284 284 284 284 284 283 283 283 282 282 282 281 280 280 280 280
275 278 274 273 263 264 274 274 275 279 282 282 283 283 283 284 283 285 289 289 289 289 288 287 286 285 285 285 285 285 285 285 284 284 283 284 284 284 283 283 282 282 281 281 280 280 280 280 280
273 274 275 276 274 269 268 273 281 282 282 280 281 283 283 282 284 284 287 288 289 288 288 287 286 285 284 285 285 284 284 284 284 284 284 284 283 283 283 283 282 281 281 280 280 280 279 279 279
273 275 277 273 269 272 272 273 284 284 283 282 281 284 283 282 283 284 285 286 287 287 287 286 286 285 285 285 285 284 284 284 283 283 283 283 282 282 282 282 281 281 281 280 280 279 280 279 279
Wind_Speed
14 10 4 2 4 5 10 13 16 7 2 4 6 5 6 7 5 2 3 6 7 11 9 8 10 11 12 12 13 13 13 12 13 12 13 11 10 10 9 9 8 9 10 11 11 12 12 12 12
7 11 3 4 5 9 9 15 15 4 8 9 6 3 2 6 7 9 7 5 7 7 10 10 9 11 12 12 13 13 12 12 12 12 12 12 11 10 10 11 10 9 9 9 9 11 10 11 12
8 8 3 4 7 12 10 1 5 6 4 4 5 5 5 4 9 8 10 8 7 7 10 10 10 11 11 12 12 12 12 12 12 12 12 11 11 11 10 10 10 10 11 11 11 10 10 10 7
4 3 4 5 12 14 17 2 2 8 2 3 4 7 6 7 6 9 10 9 8 10 11 10 10 11 11 12 12 12 12 12 11 12 12 12 12 12 11 11 11 11 11 11 11 11 10 7 14
3 4 6 8 15 17 13 6 4 6 6 6 4 6 5 3 11 11 9 8 8 11 10 8 9 10 11 11 11 11 11 11 11 11 11 12 11 12 12 12 11 11 11 11 11 10 8 17 16
3 4 2 9 13 15 5 10 3 7 7 7 2 8 5 10 9 8 7 8 7 10 11 8 9 10 11 11 11 11 11 10 11 11 11 12 12 12 12 12 11 11 11 11 11 10 18 17 17
4 5 9 12 13 16 7 4 9 10 3 6 3 4 6 9 9 8 7 7 8 8 10 9 7 10 12 12 12 11 11 11 11 11 11 11 12 12 12 12 11 11 12 11 18 17 16 17 18
3 4 10 13 12 11 5 3 3 5 5 5 5 1 5 12 11 8 7 7 8 7 6 7 8 8 8 6 11 10 9 10 10 9 7 6 10 13 12 11 11 13 14 14 15 16 18 19 19
2 4 8 12 12 5 4 4 3 1 3 3 5 5 4 18 13 8 7 7 6 6 7 7 6 6 7 8 7 9 8 7 7 7 3 1 5 6 8 10 11 14 14 15 13 12 15 19 19
6 6 11 2 6 1 3 3 3 1 2 3 3 5 11 14 12 11 10 9 9 7 7 7 7 7 5 6 6 6 5 5 4 3 4 4 5 3 6 6 9 10 13 14 14 13 12 14 7
6 8 11 1 4 4 1 1 2 1 5 5 2 11 12 9 11 11 11 10 9 9 6 7 7 7 6 5 4 3 3 2 3 5 4 3 3 2 2 2 1 2 6 4 7 6 6 10 7
10 11 8 4 3 2 3 1 2 5 6 5 3 17 16 14 13 12 11 11 10 9 8 7 7 6 6 4 3 4 4 3 4 4 4 3 3 3 4 2 3 4 4 5 5 4 5 8 11
10 9 9 4 4 4 4 7 6 5 5 5 5 11 13 13 13 10 9 8 8 8 8 8 7 6 5 5 4 5 4 4 4 5 5 4 4 3 3 3 4 4 4 5 5 5 5 7 9
4 6 7 4 5 6 5 6 8 12 12 11 12 15 13 14 15 12 9 9 9 9 8 8 7 7 6 5 5 4 5 4 5 4 3 4 3 2 3 3 4 5 5 5 5 5 5 5 6
3 5 8 9 7 5 5 7 17 13 11 11 13 14 15 17 16 18 12 10 10 9 9 8 8 7 6 7 5 4 4 4 5 4 5 4 3 3 4 4 4 4 4 6 5 5 5 5 6
4 5 4 0 11 4 6 14 8 9 14 14 11 10 13 16 16 14 12 11 10 9 10 9 8 7 7 7 5 4 4 4 5 5 4 4 3 3 4 4 3 3 4 4 5 5 5 5 5
8 6 10 6 12 7 10 7 3 6 10 9 10 12 12 13 13 13 10 11 12 11 11 10 8 8 7 7 5 5 6 5 4 5 4 4 2 3 5 4 3 5 4 4 4 4 5 5 5
7 12 9 9 10 8 7 16 13 6 7 9 9 11 13 15 18 14 12 11 11 11 11 11 8 8 8 5 5 4 4 4 4 4 4 5 3 4 5 3 3 5 5 4 4 5 4 4 5
12 14 13 9 4 5 10 15 15 12 10 11 13 13 15 17 14 15 13 13 12 12 14 13 12 11 8 5 5 4 4 4 4 4 6 5 3 3 5 3 3 4 5 5 6 4 6 4 4
10 13 14 9 5 4 8 15 15 14 15 17 18 16 17 14 17 17 18 17 17 15 15 15 14 13 9 6 5 4 5 3 4 4 4 5 4 3 4 4 3 5 4 6 5 5 4 3 2
9 8 8 10 3 6 6 11 12 14 23 18 16 17 18 21 22 22 22 21 17 18 17 16 15 14 10 8 5 5 4 4 3 4 3 3 4 3 4 4 4 5 4 4 3 4 5 3 2
7 5 9 7 2 5 5 11 7 10 14 13 20 18 18 17 17 18 20 20 19 16 15 15 14 14 10 8 7 9 5 6 4 4 4 4 4 5 5 5 4 4 4 5 3 2 2 4 4
4 2 3 2 5 7 4 6 6 4 7 11 16 14 14 17 17 20 21 20 19 16 15 14 14 14 12 9 9 8 6 4 5 6 8 5 4 5 5 5 5 5 4 4 5 4 4 2 4
2 2 1 2 2 5 10 10 2 6 5 5 4 10 11 11 12 17 16 17 17 15 15 15 15 15 13 12 10 10 9 8 8 6 5 5 4 4 4 5 5 6 6 5 5 5 6 5 5
2 3 1 2 1 10 1 8 14 12 13 6 6 6 7 8 9 12 16 18 17 19 18 16 18 16 14 14 11 11 8 9 10 9 5 6 4 3 5 4 5 4 5 6 5 6 5 5 4
8 4 5 7 5 3 2 8 8 8 10 6 4 2 6 4 9 11 16 18 18 19 19 19 18 17 15 14 11 9 8 7 6 7 6 5 5 5 7 6 6 7 6 6 6 4 4 5 5
6 5 1 2 2 3 6 8 8 9 7 5 6 3 6 6 5 8 10 16 17 18 19 19 18 16 16 16 12 10 8 9 8 9 7 6 6 6 7 7 7 6 6 6 6 4 4 5 4
1 3 4 1 2 5 6 6 8 5 6 6 8 7 8 4 5 4 8 11 13 15 15 16 17 17 17 15 13 11 9 10 8 9 9 8 8 9 8 7 7 7 6 6 7 5 4 5 3
3 3 3 1 3 5 2 7 4 6 5 2 3 3 4 5 6 7 7 9 12 13 15 16 16 16 16 15 13 12 10 10 8 9 8 8 8 10 8 8 7 7 7 6 6 6 5 5 4
2 4 6 5 6 4 3 11 5 6 6 5 4 6 4 2 3 5 6 8 12 15 15 16 16 16 16 15 14 13 11 10 8 10 8 8 9 8 8 8 7 7 7 7 6 6 6 5 5
Wind_Direction
296 272 241 264 246 227 246 239 250 252 72 66 17 17 69 46 18 162 109 103 125 124 116 88 90 89 81 82 80 76 73 73 73 71 68 68 61 53 53 53 50 43 39 33 25 32 29 23 19
302 296 236 263 237 246 240 236 255 26 89 76 58 339 115 81 70 114 115 163 128 133 107 89 90 90 84 86 82 78 77 74 74 69 67 64 57 56 55 53 49 45 35 31 26 24 20 18 11
263 262 264 219 240 244 264 20 45 50 81 122 96 32 11 77 113 127 110 149 123 103 97 91 94 93 88 86 79 77 76 74 72 68 66 63 58 53 51 49 50 49 45 42 40 33 22 17 22
289 201 247 255 253 235 248 269 205 131 41 343 119 115 81 322 115 113 145 151 133 103 99 94 98 96 94 89 86 84 81 75 69 65 63 58 52 49 48 48 49 51 47 41 41 39 35 12 55
223 270 246 239 249 267 279 148 237 167 164 166 178 134 97 99 93 127 145 135 132 106 110 83 92 93 91 89 90 86 84 82 78 72 67 63 60 52 43 42 44 49 52 50 46 46 40 61 52
251 236 246 247 252 263 5 344 331 233 193 102 174 130 96 121 135 142 150 143 130 107 111 102 89 88 89 88 84 80 81 79 76 72 69 65 59 55 47 46 43 47 51 57 65 65 62 58 53
247 280 255 270 269 284 252 108 339 300 208 144 326 143 116 159 151 144 159 139 127 126 131 138 122 102 87 84 82 79 79 77 74 76 75 74 69 58 53 46 48 55 62 71 67 65 62 65 59
287 245 260 260 261 282 29 102 96 9 23 338 26 78 165 174 141 151 139 138 132 142 141 127 152 155 119 91 87 85 81 76 74 73 79 87 84 74 63 50 53 61 71 71 70 78 77 70 64
236 252 250 254 269 230 127 42 47 203 302 23 30 37 342 136 145 148 153 157 147 158 149 138 134 122 119 128 122 108 96 90 75 67 16 110 51 63 85 68 63 69 73 77 80 85 94 80 63
216 227 247 287 312 161 220 180 219 10 286 199 98 42 114 135 156 167 172 173 165 162 155 144 145 133 126 119 140 112 78 74 71 66 35 73 97 86 98 92 84 74 77 72 70 64 67 74 62
205 244 274 67 56 24 22 113 201 100 264 200 279 154 150 166 180 184 185 180 172 166 159 151 130 141 129 101 108 113 131 140 84 45 51 27 42 56 135 116 133 106 69 50 51 46 52 74 73
262 263 266 76 103 119 200 41 172 176 252 330 70 160 163 181 198 194 195 177 168 151 144 132 132 128 127 146 167 134 113 104 93 57 9 57 51 38 46 67 70 65 69 73 64 52 63 83 82
235 261 292 20 134 249 126 226 224 240 201 174 97 141 172 187 202 209 196 169 151 152 144 145 138 137 158 137 117 114 126 97 110 90 26 39 69 58 71 59 59 65 72 76 67 68 59 56 67
31 341 290 168 240 224 225 247 169 232 203 159 158 171 181 199 202 206 193 166 156 159 150 146 151 144 153 137 127 118 103 123 89 71 67 38 71 78 93 80 71 57 63 60 71 79 76 69 63
2 291 242 221 209 249 189 252 230 219 160 188 191 190 178 209 201 205 186 170 166 159 154 153 148 146 139 123 126 111 126 114 109 106 73 63 77 77 103 89 85 99 101 96 83 81 82 80 78
229 204 246 72 146 186 180 256 257 202 175 203 196 200 204 200 206 204 185 168 165 157 157 161 154 148 148 137 134 130 137 122 117 107 96 75 42 103 100 99 97 99 93 92 88 84 76 76 76
205 251 227 226 182 135 193 279 22 13 172 207 203 203 202 200 206 201 181 173 169 163 162 156 152 156 154 143 136 131 129 113 118 110 110 107 73 75 103 109 122 107 90 94 100 90 100 92 87
218 222 232 242 196 225 208 252 274 222 222 229 230 203 205 202 208 191 179 179 167 159 165 159 162 154 143 138 126 125 125 124 113 113 118 118 125 112 104 115 116 104 103 89 91 99 93 110 104
269 289 288 289 181 171 231 251 258 257 206 222 222 228 209 205 194 188 184 177 168 171 168 167 168 160 154 156 148 146 153 138 115 112 127 118 115 118 123 140 134 121 116 126 119 114 107 78 110
251 257 267 287 127 185 265 264 261 253 243 214 216 213 217 201 193 188 186 184 182 176 171 169 173 165 167 160 164 151 141 143 136 129 113 110 114 120 125 139 117 104 105 120 130 129 105 74 63
258 259 269 264 302 215 286 277 249 243 247 245 219 216 214 206 195 192 191 187 181 182 176 173 172 169 171 168 149 124 105 90 105 126 115 130 121 103 105 119 120 126 122 133 126 131 135 132 28
256 336 254 254 315 249 105 288 260 285 276 223 231 215 217 210 202 198 193 191 186 182 175 172 173 170 175 160 147 156 150 158 165 147 138 137 142 118 110 116 118 109 115 111 112 78 113 106 128
208 345 10 343 250 296 241 263 263 176 270 248 222 220 215 211 196 197 194 189 184 181 177 174 171 170 173 159 160 156 156 165 136 128 132 140 136 121 123 119 116 110 105 110 110 92 78 74 127
127 155 183 177 191 271 206 215 265 219 244 304 278 220 219 202 198 196 190 179 183 177 174 175 173 175 173 163 166 172 167 155 138 137 144 146 142 131 133 130 122 111 110 112 112 104 95 93 91
228 167 216 308 13 236 153 217 239 300 295 280 307 333 340 195 192 181 174 181 182 181 178 177 174 177 174 170 172 177 170 149 145 150 151 149 145 142 158 133 122 117 114 113 105 99 89 92 92
188 193 177 218 208 284 24 243 250 230 262 44 24 244 299 232 195 186 179 184 186 183 180 178 177 175 173 171 175 175 162 149 148 152 149 150 148 149 152 148 136 126 126 120 113 108 109 105 102
177 206 36 14 130 38 229 272 312 239 292 325 331 354 305 290 274 198 178 185 184 181 183 181 176 176 175 175 172 172 160 151 155 157 152 153 150 147 151 149 135 136 134 130 119 113 106 110 113
37 301 127 270 216 254 249 246 230 230 105 46 25 19 357 305 267 217 182 178 181 181 180 182 181 180 176 173 172 171 164 156 154 156 155 159 153 143 146 149 146 143 137 129 116 113 118 114 106
160 208 206 23 193 199 301 261 247 128 128 32 32 18 341 326 213 218 187 163 173 175 180 183 182 180 175 172 171 168 168 162 157 160 157 157 141 145 148 153 148 148 143 138 126 133 135 130 123
350 221 173 151 240 235 164 260 252 206 143 159 225 232 211 260 215 203 186 163 171 177 182 184 182 182 179 172 169 171 164 161 156 159 157 149 145 144 150 149 146 148 146 144 140 145 145 148 143